Orbital Elements at Epoch 2459200.5 (2020-Dec-17.0) TDB
Reference: JPL 36 (heliocentric ecliptic J2000)
Element | Value | Uncertainty (1-sigma) | Units |
e | .01339201339940312 | 1.1959e-08 | |
a | 3.159273350170152 | 1.7383e-08 | au |
q | 3.116964319132296 | 3.6613e-08 | au |
i | 16.65017175703363 | 3.3749e-07 | deg |
node | 107.2365196050691 | 4.4111e-06 | deg |
peri | 210.9404937837601 | 9.2686e-05 | deg |
M | 27.90952483787812 | 9.0009e-05 | deg |
tp | 2459041.488265527274 (2020-Jul-10.98826553) | 0.00051284 | TDB |
period | 2051.064098823023 5.62 | 1.6928e-05 4.635e-08 | d yr |
n | .1755186491765818 | 1.4486e-09 | deg/d |
Q | 3.201582381208008 | 1.7615e-08 | au |
|
| | Orbit Determination Parameters
Additional Information
|